ORBCOMM FM38 [-]

Last updated on July 6, 2021, 3:36 p.m. UTC

1 33060U 08031A   21186.61538501  .00000002  00000-0  31058-4 0  9994
2 33060  48.4438 295.4540 0006039 352.9123   7.1703 14.73800703701613
UTC
Height (km)
Latitude
Longitude
Inclination
Orbital Period
UTC large
Height (km)
Speed (km/s)
/
Latitude / Longitude
Inclination (degrees)
Orbital Period (minutes)
Azimuth
Elevation
Range (km)
Doppler Factor
iOS Compass Heading
iOS Angle